[ hide orbit diagram ]
For accurate long-term ephemerides, please instead use our Horizons system.This orbit viewer was implemented using two-body methods, and hence should not be used for determining accurate long-term trajectories (over several years or decades) or planetary encounter circumstances.
Orbital Elements at Epoch 2459200.5 (2020-Dec-17.0) TDB
Reference: JPL 14 (heliocentric ecliptic J2000)
Element | Value | Uncertainty (1-sigma) | Units |
e | .2131614798916847 | 3.8993e-08 | |
a | 2.643224043647745 | 1.6247e-08 | au |
q | 2.079790494818508 | 1.0708e-07 | au |
i | 3.492498824216652 | 6.401e-06 | deg |
node | 17.79247243685868 | 8.1256e-05 | deg |
peri | 74.38790898290191 | 8.3376e-05 | deg |
M | 281.7305019117178 | 2.1113e-05 | deg |
tp | 2459541.763184584434 (2021-Nov-23.26318458) | 9.406e-05 | TDB |
period | 1569.637591285241 4.30 | 1.4472e-05 3.962e-08 | d yr |
n | .2293523052701783 | 2.1146e-09 | deg/d |
Q | 3.206657592476981 | 1.971e-08 | au |
|
| | Orbit Determination Parameters
Additional Information
|
[ show covariance matrix ]
Physical Parameter Table
Parameter |
Symbol |
Value |
Units |
Sigma |
Reference |
Notes |
absolute magnitude |
H |
16.08 |
|
n/a |
E2021B55 |
|
|
102711 (1999 VE93) Discovered 1999-Nov-09 by LINEAR at Socorro |
Reference: 20051019/Numbers.arc | Last Updated: 2005-10-26 |
|
[ show close-approach data ]
|